Mountain Home Air Force Base, ID

4:27 AM MDT on August 28, 2016 (GMT -0600)
Mountain Home Air Force Base

Weather History for KMUO - February, 2014

Change the Weather History Date:

Wednesday, February 12, 2014

  Actual Average Record
Temperature  
Mean Temperature 42 °F 34 °F  
Max Temperature 47 °F 44 °F 60 °F (1971)
Min Temperature 37 °F 24 °F -7 °F (1929)
Degree Days  
Heating Degree Days 23 31  
Month to date heating degree days 353 382  
Cooling Degree Days 0 0  
Month to date cooling degree days 0 0  
Moisture  
Dew Point 41 °F    
Average Humidity 100    
Maximum Humidity 100    
Minimum Humidity 99    
Precipitation  
Precipitation 0.11 in 0.02 in 0.41 in (1978)
Month to date precipitation 0.21 0.34  
Sea Level Pressure  
Sea Level Pressure 30.01 in    
Wind  
Wind Speed 12 mph (ESE)    
Max Wind Speed 18 mph    
Max Gust Speed 21 mph    
Visibility 9 miles    
Events Rain    
T = Trace of Precipitation, MM = Missing Value Source: NWS Daily Summary

Daily Weather History Graph

Daily Weather History Graph

Search for Another Location

Airport or City:

Trip Planner

Search our weather history database for the weather conditions in past years. The results will help you decide how hot, cold, wet, or windy it might be!

Date:

Astronomy

Feb. 12, 2014 Rise Set
Actual Time 7:45 AM MST 6:10 PM MST
Civil Twilight 7:15 AM MST 6:40 PM MST
Nautical Twilight 6:42 AM MST 7:13 PM MST
Astronomical Twilight 6:09 AM MST 7:46 PM MST
Moon 4:27 PM MST (2/12) 6:05 AM MST (2/12)
Length of Visible Light 11h 24m
Length of Day
10h 25m
Waxing Gibbous, 96% of the Moon is Illuminated
Feb 12
Waxing Gibbous
Feb 14
Full
Feb 22
Last Quarter
Mar 1
New
Mar 8
First Quarter

Hourly Weather History & Observations

Time (MST) Temp. Windchill Dew Point Humidity Pressure Visibility Wind Dir Wind Speed Gust Speed Precip Events Conditions
12:58 AM 39.0 °F 30.3 °F 39.0 °F 100% 30.11 in 10.0 mi East 16.1 mph - N/A   Overcast
1:58 AM 38.3 °F 30.5 °F 38.3 °F 100% 30.07 in 10.0 mi ESE 12.7 mph - N/A   Overcast
2:48 AM 39.2 °F 29.8 °F 39.2 °F 100% 30.04 in 10.0 mi ESE 18.4 mph 20.7 mph N/A   Overcast
2:58 AM 39.9 °F 30.8 °F 39.7 °F 99% 30.06 in 10.0 mi ESE 18.4 mph 20.7 mph N/A   Mostly Cloudy
3:43 AM 39.2 °F 35.0 °F 39.2 °F 100% 30.04 in 9.0 mi South 5.8 mph - N/A Rain Light Rain
3:58 AM 38.5 °F 30.7 °F 38.5 °F 100% 30.05 in 7.0 mi ESE 12.7 mph - 0.01 in Rain Light Rain
4:43 AM 37.4 °F 29.3 °F 37.4 °F 100% 30.02 in 10.0 mi East 12.7 mph - N/A Rain Light Rain
4:48 AM 37.4 °F 29.3 °F 37.4 °F 100% 30.02 in 9.0 mi East 12.7 mph - N/A Rain Light Rain
4:58 AM 38.1 °F 29.8 °F 38.1 °F 100% 30.04 in 7.0 mi East 13.8 mph - 0.08 in Rain Light Rain
5:13 AM 37.4 °F 28.9 °F 37.4 °F 100% 30.01 in 10.0 mi East 13.8 mph - N/A Rain Light Rain
5:58 AM 38.5 °F 29.6 °F 38.5 °F 100% 30.02 in 10.0 mi East 16.1 mph - 0.02 in Rain Light Rain
6:08 AM 39.2 °F 30.5 °F 39.2 °F 100% 29.98 in 10.0 mi East 16.1 mph - N/A Rain Light Rain
6:13 AM 39.2 °F 30.2 °F 39.2 °F 100% 29.98 in 9.0 mi East 17.3 mph - N/A Rain Light Rain
6:18 AM 39.2 °F 29.8 °F 39.2 °F 100% 29.98 in 10.0 mi East 18.4 mph - N/A Rain Light Rain
6:33 AM 37.4 °F 28.2 °F 37.4 °F 100% 29.98 in 10.0 mi East 16.1 mph - N/A   Overcast
6:58 AM 37.6 °F 28.4 °F 37.6 °F 100% 30.01 in 10.0 mi East 16.1 mph - 0.02 in   Overcast
7:28 AM 37.4 °F 28.2 °F 37.4 °F 100% 29.97 in 10.0 mi East 16.1 mph - N/A Rain Light Rain
7:58 AM 38.1 °F 28.4 °F 38.1 °F 100% 30.02 in 10.0 mi East 18.4 mph - 0.00 in Rain Light Rain
8:58 AM 38.7 °F 30.1 °F 38.7 °F 100% 30.03 in 10.0 mi East 15.0 mph - 0.00 in   Overcast
9:58 AM 39.0 °F 30.6 °F 39.0 °F 100% 30.03 in 10.0 mi East 15.0 mph - N/A   Overcast
10:09 AM 39.2 °F 30.8 °F 39.2 °F 100% 29.98 in 10.0 mi East 15.0 mph - N/A   Overcast
10:58 AM 41.0 °F 34.7 °F 41.0 °F 100% 30.03 in 10.0 mi East 10.4 mph - N/A   Overcast
11:58 AM 44.2 °F 38.4 °F 44.2 °F 100% 30.00 in 10.0 mi East 11.5 mph - N/A   Overcast
12:33 PM 44.6 °F 39.7 °F 44.6 °F 100% 29.97 in 10.0 mi East 9.2 mph - N/A Rain Light Rain
12:58 PM 45.7 °F 42.0 °F 45.7 °F 100% 30.00 in 10.0 mi East 6.9 mph - 0.00 in Rain Light Rain
1:58 PM 46.2 °F 43.3 °F 46.2 °F 100% 30.00 in 10.0 mi NE 5.8 mph - 0.02 in Rain Light Rain
2:58 PM 46.9 °F - 46.9 °F 100% 29.99 in 10.0 mi NE 3.5 mph - 0.00 in Rain Light Rain
3:58 PM 46.9 °F - 46.9 °F 100% 30.01 in 10.0 mi NNE 4.6 mph - 0.01 in Rain Light Rain
4:58 PM 46.0 °F - 46.0 °F 100% 30.01 in 10.0 mi ENE 2.3 mph - 0.03 in   Overcast
5:46 PM 44.6 °F 41.4 °F 44.6 °F 100% 30.00 in 2.0 mi South 5.8 mph - N/A Rain Light Rain
5:50 PM 44.6 °F 41.4 °F 44.6 °F 100% 30.00 in 4.0 mi South 5.8 mph - N/A Rain Light Rain
5:58 PM 43.7 °F 40.3 °F 43.7 °F 100% 30.03 in 4.0 mi South 5.8 mph - 0.00 in Rain Light Rain
6:03 PM 42.8 °F 39.3 °F 42.8 °F 100% 30.00 in 8.0 mi SSE 5.8 mph - N/A Rain Light Rain
6:18 PM 42.8 °F 39.3 °F 42.8 °F 100% 30.01 in 10.0 mi South 5.8 mph - N/A   Overcast
6:53 PM 42.8 °F 38.0 °F 42.8 °F 100% 30.00 in 2.5 mi SSE 8.1 mph - N/A   Overcast
6:58 PM 42.6 °F 37.8 °F 42.6 °F 100% 30.03 in 2.0 mi South 8.1 mph - 0.00 in   Overcast
7:03 PM 42.8 °F 39.3 °F 42.8 °F 100% 30.00 in 4.0 mi South 5.8 mph - N/A   Overcast
7:58 PM 42.8 °F 40.1 °F - N/A% 30.03 in 9.0 mi SE 4.6 mph - 0.01 in Rain Light Rain
8:23 PM 41.0 °F 39.0 °F - N/A% 30.01 in 10.0 mi ENE 3.5 mph - N/A   Overcast
8:28 PM 41.0 °F 37.1 °F 41.0 °F 100% 30.00 in 10.0 mi ENE 5.8 mph - N/A   Overcast
8:58 PM 41.0 °F 36.4 °F 41.0 °F 100% 29.99 in 10.0 mi East 6.9 mph - N/A   Overcast
9:44 PM 41.0 °F 36.4 °F 41.0 °F 100% 29.99 in 10.0 mi East 6.9 mph - N/A   Overcast
9:58 PM 41.0 °F 37.1 °F 41.0 °F 100% 30.03 in 10.0 mi East 5.8 mph - N/A   Overcast
10:58 PM 41.0 °F 35.2 °F 41.0 °F 100% 30.03 in 10.0 mi ESE 9.2 mph - 0.00 in   Mostly Cloudy
11:55 PM 41.0 °F 34.7 °F 41.0 °F 100% 30.00 in 10.0 mi ESE 10.4 mph - N/A Rain Light Rain
11:58 PM 41.0 °F 34.3 °F - N/A% 30.03 in 10.0 mi ESE 11.5 mph - 0.00 in Rain Light Rain